Weather History for Custer, SD

Change the Weather History Date:

Sunday, October 28, 2012

  Actual Average Record
Temperature  
Mean Temperature 35 °F 39 °F  
Max Temperature 48 °F 50 °F 74 °F (1983)
Min Temperature 21 °F 28 °F 8 °F (1963)
Degree Days  
Heating Degree Days 30 26  
Month to date heating degree days 685 614  
Since 1 July heating degree days 966 1100  
Cooling Degree Days 0 0  
Month to date cooling degree days 0 0  
Year to date cooling degree days 390 177  
Moisture  
Dew Point 24 °F    
Average Humidity 65    
Maximum Humidity 84    
Minimum Humidity 45    
Precipitation  
Precipitation 0.00 in 0.02 in 0.74 in (1989)
Month to date precipitation 1.29 1.41  
Year to date precipitation 11.57 17.90  
Sea Level Pressure  
Sea Level Pressure 30.05 in    
Wind  
Wind Speed 4 mph (West)    
Max Wind Speed 16 mph    
Max Gust Speed 23 mph    
Visibility 10 miles    
Events      
T = Trace of Precipitation, MM = Missing Value Source: NWS Daily Summary

Daily Weather History Graph

Daily Weather History Graph

Search for Another Location

Airport:

Trip Planner

Search our weather history database for the weather conditions in past years. The results will help you decide how hot, cold, wet, or windy it might be!

Date:

Astronomy

Oct. 28, 2012 Rise Set
Actual Time 7:25 AM MDT 5:49 PM MDT
Civil Twilight 6:56 AM MDT 6:19 PM MDT
Nautical Twilight 6:22 AM MDT 6:53 PM MDT
Astronomical Twilight 5:49 AM MDT 7:26 PM MDT
Moon 5:08 PM MDT (10/28) 6:20 AM MDT (10/28)
Length of Visible Light 11h 23m
Length of Day
10h 23m
Waxing Gibbous, 99% of the Moon is Illuminated
Oct 28
Waxing Gibbous
Oct 29
Full
Nov 6
Last Quarter
Nov 13
New
Nov 20
First Quarter

Hourly Weather History & Observations

Time (MDT) Temp. Windchill Dew Point Humidity Pressure Visibility Wind Dir Wind Speed Gust Speed Precip Events Conditions
12:53 AM 21.9 °F - 18.0 °F 85% 30.13 in 10.0 mi Calm Calm - N/A   Clear
1:53 AM 24.1 °F 19.7 °F 17.1 °F 75% 30.11 in 10.0 mi WSW 3.5 mph - N/A   Clear
2:53 AM 23.0 °F - 17.1 °F 78% 30.11 in 10.0 mi Calm Calm - N/A   Clear
3:53 AM 23.0 °F - 16.0 °F 74% 30.12 in 10.0 mi Calm Calm - N/A   Mostly Cloudy
4:53 AM 25.0 °F - 16.0 °F 69% 30.12 in 10.0 mi Calm Calm - N/A   Overcast
5:53 AM 24.1 °F - 17.1 °F 75% 30.12 in 10.0 mi Calm Calm - N/A   Scattered Clouds
6:53 AM 24.1 °F - 18.0 °F 77% 30.13 in 10.0 mi Calm Calm - N/A   Partly Cloudy
7:53 AM 24.1 °F - 19.0 °F 81% 30.14 in 10.0 mi Calm Calm - N/A   Mostly Cloudy
8:53 AM 28.9 °F - 21.9 °F 75% 30.11 in 10.0 mi Calm Calm - N/A   Clear
9:53 AM 37.0 °F 34.5 °F 23.0 °F 57% 30.06 in 10.0 mi Variable 3.5 mph - N/A   Clear
10:53 AM 41.0 °F 36.4 °F 23.0 °F 49% 30.04 in 10.0 mi Variable 6.9 mph - N/A   Clear
11:53 AM 44.1 °F 39.5 °F 24.1 °F 45% 30.01 in 10.0 mi SW 8.1 mph - N/A   Partly Cloudy
12:53 PM 45.0 °F 41.2 °F 24.1 °F 44% 29.97 in 10.0 mi SW 6.9 mph - N/A   Scattered Clouds
1:53 PM 44.1 °F 38.6 °F 26.1 °F 49% 29.96 in 10.0 mi West 10.4 mph 21.9 mph N/A   Overcast
2:53 PM 46.0 °F 40.2 °F 28.0 °F 50% 29.96 in 10.0 mi West 12.7 mph 23.0 mph N/A   Overcast
3:53 PM 46.0 °F 39.9 °F 30.0 °F 54% 29.96 in 10.0 mi West 13.8 mph 17.3 mph N/A   Overcast
4:53 PM 45.0 °F 40.6 °F 30.0 °F 56% 29.98 in 10.0 mi West 8.1 mph - N/A   Scattered Clouds
5:53 PM 42.1 °F 38.4 °F 28.9 °F 60% 30.00 in 10.0 mi West 5.8 mph - N/A   Partly Cloudy
6:53 PM 43.0 °F 40.3 °F 28.9 °F 58% 30.01 in 10.0 mi WNW 4.6 mph - N/A   Scattered Clouds
7:53 PM 39.0 °F 36.8 °F 28.9 °F 67% 30.04 in 10.0 mi WNW 3.5 mph - N/A   Overcast
8:53 PM 44.1 °F 42.5 °F 28.9 °F 55% 30.01 in 10.0 mi WNW 3.5 mph - N/A   Overcast
9:53 PM 37.9 °F - 28.0 °F 68% 30.01 in 10.0 mi Calm Calm - N/A   Scattered Clouds
10:53 PM 34.0 °F - 27.0 °F 75% 30.03 in 10.0 mi Calm Calm - N/A   Clear
11:53 PM 37.0 °F - 28.0 °F 70% 30.00 in 10.0 mi Calm Calm - N/A   Clear